Regional Weather Roundup
Issued by NWS

Home | Current Version | Previous Version | Text Only | Print | Product List | Glossary On
Versions: 1 2 3 4 5 6 7 8 9 10 11 12 13 14 15 16 17 18 19 20 21 22 23 24 25 26 27 28 29 30 31 32 33 34 35 36 37 38 39 40 41 42 43 44 45 46 47 48 49 50
000
ASUS43 KTOP 280959
RWRKS

WEATHER ROUNDUP FOR KANSAS
NATIONAL WEATHER SERVICE GOODLAND KS
500 AM CDT TUE JUL 28 2015

NOTE:  "FAIR" INDICATES FEW OR NO CLOUDS BELOW 12,000 FEET WITH NO
SIGNIFICANT WEATHER AND/OR OBSTRUCTIONS TO VISIBILITY.

KSZ001>006-013>018-027>032-041>047-281100-
NORTHWEST KANSAS

CITY           SKY/WX    TMP DP  RH WIND       PRES   REMARKS
GOODLAND       CLEAR     73  57  57 NW18G25   29.87R
HAYS           PTCLDY    79  63  57 S15       29.80F
HILL CITY      PTCLDY    80  68  66 S16G22    29.76F
RUSSELL        CLEAR     79  65  62 S21G26    29.79S
$$

KSZ061>065-074>080-084>089-281100-
SOUTHWEST KANSAS

CITY           SKY/WX    TMP DP  RH WIND       PRES   REMARKS
DODGE CITY     CLEAR     76  62  62 S15       29.86S
ELKHART          N/A     75  59  57 S14         N/A
GARDEN CITY    CLEAR     76  64  66 S15       29.85S
GREAT BEND     CLEAR     79  63  57 S17G24    29.82S
LIBERAL        PTCLDY    79  63  57 S14       29.88S
$$

KSZ066>073-081>083-090>101-281100-
SOUTHEAST KANSAS

CITY           SKY/WX    TMP DP  RH WIND       PRES   REMARKS
CHANUTE        CLEAR     79  75  87 S7        29.89R
COFFEYVILLE    CLEAR     78  76  93 S7        29.88S
HUTCHINSON     CLEAR     79  67  66 S10       29.86S
NEWTON         CLEAR     81  64  57 S17       29.89F
PARSONS        CLEAR     79  76  90 S6        29.91R
WICHITA INTL   CLEAR     78  70  76 S9        29.87R
WICHITA JABRA  CLEAR     80  70  71 S16       29.87F
WINFIELD       CLEAR     78  70  76 S10       29.89S
$$

KSZ007>012-019>026-033>040-048>060-102>105-281100-
NORTHEAST KANSAS

CITY           SKY/WX    TMP DP  RH WIND       PRES   REMARKS
CONCORDIA      CLEAR     79  67  66 S14       29.80S
EMPORIA        CLEAR     76  72  87 S10       29.87R
LAWRENCE       CLEAR     76  73  91 SE6       29.86S
MANHATTAN      CLEAR     79  72  79 SW7       29.82F
OLATHE IND     CLEAR     78  74  87 S7        29.89S
OLATHE EXE     CLEAR     77  74  90 S6        29.88S
SALINA         CLEAR     81  68  64 S12       29.81F
TOPEKA BILLARD CLEAR     78  74  87 S5        29.85S
TOPEKA FORBES  CLEAR     78  73  84 SE8       29.86S
$$


USA.gov is the U.S. government's official web portal to all federal, state and local government web resources and services.